Flag for Germany Weather past 2 weeks in Warendorf, North Rhine-Westphalia, Germany

Now
66 °F

Sprinkles. Broken clouds.


Feels Like: 66 °F
Forecast: 60 / 70 °F
Wind: 5 mph from Northeast

Location: Muenster / Osnabrueck

Current Time: Jul 24, 2014 at 8:37:17 PM

Latest Report: Jul 24, 2014 at 7:50 PM


Visibility: N/A

Pressure: 30.01 "Hg

Humidity: 88%

Dew point: 63 °F

Location of WarendorfLocation

Historic Weather in Warendorf — Graph

°F

Warendorf temperature yesterday

Maximum temperature yesterday: 82 °F (at 3:20 PM)
Minimum temperature yesterday: 66 °F (at 3:50 AM)
Average temperature yesterday: 74 °F

Past Weeks' High & Low Weather Summary

 TemperatureHumidityPressure
High93 °F (Jul 19, 2:20 PM)100% (Jul 9, 9:50 PM)30.18 "Hg (Jul 9, 9:50 PM)
Low52 °F (Jul 15, 2:50 AM)19% (Jul 19, 3:20 PM)29.68 "Hg (Jul 9, 7:20 PM)
Average70 °F71%29.95 "Hg
* Reported Jul 9 7:20 PM — Jul 24 7:20 PM, Warendorf, Weather by CustomWeather, © 2014

Note: Actual official high and low records may vary slightly from our data, if they occured in-between our weather recording intervals... More about our weather records

Advertising

Warendorf weather history for previous 24 hours

 ConditionsComfort  
Time TempWeatherWind HumidityBarometerVisibility
7:20 PM
Jul 24
64 °FSprinkles. Broken clouds.2 mph94%30.01 "HgN/A
6:50 PM63 °FThunderstorms. Broken clouds.2 mph88%29.98 "HgN/A
6:20 PM66 °FThunderstorms. Partly sunny.6 mph83%30.01 "Hg4 mi
5:50 PM77 °FThundershowers. Scattered clouds.13 mph42%29.98 "HgN/A
5:20 PM77 °FScattered clouds.14 mph44%29.98 "HgN/A
4:50 PM77 °FPassing clouds.15 mph44%29.98 "HgN/A
4:20 PM79 °FPassing clouds.12 mph42%29.98 "HgN/A
3:50 PM73 °FThundershowers. Scattered clouds.12 mph61%29.98 "HgN/A
3:20 PM77 °FSunny.14 mph44%29.98 "Hg10 mi
2:50 PM75 °FSunny.14 mph50%29.98 "Hg10 mi
2:20 PM79 °FBroken clouds.13 mph45%30.01 "HgN/A
1:50 PM77 °FBroken clouds.14 mph47%30.01 "HgN/A
1:20 PM75 °FPartly sunny.16 mph50%30.01 "HgN/A
12:50 PM75 °FPartly sunny.12 mph54%30.01 "HgN/A
12:20 PM75 °FSunny.13 mph50%30.01 "Hg10 mi
11:50 AM75 °FSunny.10 mph50%30.01 "Hg10 mi
11:20 AM73 °FSunny.12 mph53%30.01 "Hg10 mi
10:50 AM73 °FSunny.9 mph57%30.04 "Hg10 mi
10:20 AM72 °FSunny.10 mph57%30.04 "Hg10 mi
9:50 AM70 °FSunny.9 mph60%30.01 "Hg10 mi
9:20 AM68 °FSunny.10 mph69%30.01 "Hg10 mi
8:50 AM68 °FSunny.10 mph64%30.01 "Hg10 mi
8:20 AM66 °FSunny.9 mph68%30.01 "Hg10 mi
7:50 AM64 °FSunny.8 mph73%30.01 "Hg10 mi
7:20 AM64 °FSunny.6 mph73%30.01 "Hg10 mi
6:50 AM63 °FSunny.8 mph77%30.01 "Hg10 mi
6:20 AM61 °FClear.6 mph83%30.01 "Hg10 mi
5:50 AM61 °FClear.10 mph77%30.01 "Hg10 mi
5:20 AM61 °FClear.10 mph83%30.01 "Hg10 mi
4:50 AM61 °FClear.8 mph83%30.01 "Hg10 mi
4:20 AM63 °FClear.5 mph83%30.01 "Hg10 mi
3:50 AM63 °FClear.7 mph77%30.01 "Hg10 mi
3:20 AM64 °FClear.7 mph78%30.04 "Hg10 mi
2:50 AM64 °FClear.8 mph78%30.04 "Hg10 mi
2:20 AM66 °FClear.8 mph73%30.04 "Hg10 mi
1:50 AM66 °FClear.7 mph73%30.04 "Hg10 mi
1:20 AM68 °FClear.8 mph69%30.04 "Hg10 mi
12:50 AM68 °FClear.8 mph69%30.04 "Hg10 mi
12:20 AM70 °FClear.8 mph69%30.04 "Hg10 mi
11:50 PM
Jul 23
70 °FClear.8 mph64%30.04 "Hg10 mi
11:20 PM70 °FClear.9 mph69%30.04 "Hg10 mi
10:50 PM70 °FClear.7 mph64%30.04 "Hg10 mi
10:20 PM66 °FSunny.5 mph68%30.04 "Hg10 mi
9:50 PM70 °FSunny.2 mph57%30.04 "Hg10 mi
9:20 PM73 °FSunny.6 mph53%30.04 "Hg10 mi
8:50 PM75 °FSunny.6 mph47%30.01 "Hg10 mi
8:20 PM79 °FSunny.8 mph42%30.01 "Hg10 mi
Weather by CustomWeather, © 2014

See weather overviewHow to use our weather pages